Location: Ehrke Reservoir
(40.0279°N, 99.6641°W)
Time: 11:17:06
(UTC+00:00)

CZ-4C R/B - Pass Details

Date: 20 January 2020
Orbit: 644 x 1358 km, 63.4° (Epoch: 27 February)

Event Time Altitude Azimuth Distance (km) Brightness Sun altitude
Rises 01:00:26 0° 326° (NW) 3,889 5.9 -14.9°
Reaches altitude 10° 01:02:57 10° 327° (NNW) 3,022 5.3 -15.4°
Maximum altitude 01:10:23 86° 56° (NE) 1,267 3.0 -16.8°
Drops below altitude 10° 01:18:47 10° 147° (SSE) 3,380 5.1 -18.3°
Sets 01:21:44 0° 147° (SSE) 4,371 5.7 -18.9°
